Ord, NE

12:03 PM CST on February 27, 2017 (GMT -0600)
Sharp

Weather History for KODX - February, 2013

Change the Weather History Date:

Sunday, February 3, 2013

  Actual Average Record
Temperature  
Mean Temperature 37 °F 26 °F  
Max Temperature 56 °F 38 °F 61 °F (2005)
Min Temperature 18 °F 13 °F -7 °F (2004)
Degree Days  
Heating Degree Days 28 39  
Month to date heating degree days 90 117  
Since 1 July heating degree days 4044 4093  
Cooling Degree Days 0 0  
Month to date cooling degree days 0 0  
Year to date cooling degree days 0 0  
Moisture  
Dew Point 21 °F    
Average Humidity 54    
Maximum Humidity 84    
Minimum Humidity 24    
Precipitation  
Precipitation 0.00 in 0.01 in 0.51 in (1995)
Month to date precipitation T 0.05  
Year to date precipitation 0.14 0.42  
Sea Level Pressure  
Sea Level Pressure 30.04 in    
Wind  
Wind Speed 9 mph (WSW)    
Max Wind Speed 26 mph    
Max Gust Speed 31 mph    
Visibility 10 miles    
Events      
T = Trace of Precipitation, MM = Missing Value Source: NWS Daily Summary

Daily Weather History Graph

Daily Weather History Graph

Search for Another Location

Airport or City:

Trip Planner

Search our weather history database for the weather conditions in past years. The results will help you decide how hot, cold, wet, or windy it might be!

Date:

Astronomy

Feb. 03, 2013 Rise Set
Actual Time 7:45 AM CST 5:54 PM CST
Civil Twilight 7:16 AM CST 6:23 PM CST
Nautical Twilight 6:43 AM CST 6:56 PM CST
Astronomical Twilight 6:10 AM CST 7:29 PM CST
Moon 1:14 AM CST (2/3) 11:32 AM CST (2/3)
Length of Visible Light 11h 07m
Length of Day
10h 09m
Waning Gibbous, 48% of the Moon is Illuminated
Feb 3
Waning Gibbous
Feb 10
New
Feb 17
First Quarter
Feb 25
Full
Mar 4
Last Quarter

Hourly Weather History & Observations

Time (CST) Temp. Windchill Dew Point Humidity Pressure Visibility Wind Dir Wind Speed Gust Speed Precip Events Conditions
12:53 AM 32.0 °F 22.5 °F 23.0 °F 69% 30.26 in 10.0 mi WNW 12.7 mph - N/A   Clear
1:53 AM 28.9 °F 19.2 °F 23.0 °F 78% 30.24 in 10.0 mi NNW 11.5 mph - N/A   Clear
2:53 AM 27.0 °F 19.5 °F 21.9 °F 81% 30.25 in 10.0 mi WNW 6.9 mph - N/A   Clear
3:53 AM 27.0 °F - 21.0 °F 78% 30.24 in 10.0 mi Calm Calm - N/A   Clear
4:53 AM 21.0 °F 16.2 °F 18.0 °F 88% 30.23 in 10.0 mi WSW 3.5 mph - N/A   Clear
5:53 AM 19.0 °F 11.1 °F 16.0 °F 88% 30.22 in 10.0 mi SSW 5.8 mph - N/A   Clear
6:53 AM 19.0 °F 9.0 °F 16.0 °F 88% 30.22 in 10.0 mi SSW 8.1 mph - N/A   Scattered Clouds
7:53 AM 19.0 °F 11.1 °F 16.0 °F 88% 30.22 in 10.0 mi SSW 5.8 mph - N/A   Clear
8:53 AM 24.1 °F - 19.0 °F 81% 30.18 in 10.0 mi Calm Calm - N/A   Clear
9:53 AM 30.9 °F 24.3 °F 24.1 °F 76% 30.14 in 10.0 mi South 6.9 mph - N/A   Clear
10:53 AM 43.0 °F 36.8 °F 26.1 °F 51% 30.08 in 10.0 mi SW 11.5 mph - N/A   Clear
11:53 AM 50.0 °F - 25.0 °F 38% 30.04 in 10.0 mi WSW 20.7 mph 26.5 mph N/A   Clear
12:53 PM 52.0 °F - 23.0 °F 32% 29.99 in 10.0 mi SW 21.9 mph 28.8 mph N/A   Clear
1:53 PM 54.0 °F - 21.9 °F 29% 29.95 in 10.0 mi SW 21.9 mph 28.8 mph N/A   Clear
2:53 PM 55.0 °F - 19.9 °F 25% 29.91 in 10.0 mi SW 21.9 mph 27.6 mph N/A   Clear
3:53 PM 54.0 °F - 19.9 °F 26% 29.87 in 10.0 mi SW 18.4 mph 25.3 mph N/A   Clear
4:53 PM 52.0 °F - 21.9 °F 31% 29.87 in 10.0 mi SW 16.1 mph - N/A   Clear
5:53 PM 46.0 °F 42.5 °F 21.9 °F 39% 29.87 in 10.0 mi SW 6.9 mph - N/A   Clear
6:53 PM 36.0 °F 31.1 °F 19.9 °F 52% 29.88 in 10.0 mi SW 5.8 mph - N/A   Clear
7:53 PM 37.9 °F 31.5 °F 21.9 °F 53% 29.87 in 10.0 mi SW 9.2 mph - N/A   Clear
8:53 PM 36.0 °F - 21.9 °F 57% 29.86 in 10.0 mi Calm Calm - N/A   Clear
9:53 PM 37.4 °F - 21.2 °F 52% 29.79 in 10.0 mi Calm Calm - N/A   Clear
10:53 PM 32.0 °F - 21.0 °F 64% 29.84 in 10.0 mi Calm Calm - N/A   Clear
11:53 PM 30.9 °F 24.3 °F 21.0 °F 67% 29.85 in 10.0 mi NW 6.9 mph - N/A   Clear